Temperature
26 26 25 24 23 22 22 21 21 21 20 20 20 20 20 20 20 20 19 19 18 18 17 17 16 16 16 16 16 16 16 16 16 16 17 17 18 18 18 19 19 19 19
24 23 22 22 22 21 21 21 21 21 20 21 21 21 21 20 20 20 19 19 18 17 17 17 16 16 16 16 16 16 15 15 16 16 16 17 17 18 19 19 19 19 19
21 20 19 18 19 19 20 20 20 20 20 20 20 20 20 20 20 20 19 19 18 18 17 17 16 16 16 15 15 15 15 15 15 15 15 16 17 18 18 19 19 20 19
18 17 17 17 17 18 19 20 20 20 20 20 20 20 20 20 20 20 19 19 18 18 17 17 16 16 16 16 15 15 15 15 15 15 15 15 15 16 16 17 18 19 19
16 15 16 16 17 17 18 19 19 19 19 19 19 19 19 19 19 19 19 19 18 18 17 17 16 16 16 16 15 16 15 15 15 14 14 15 15 15 15 16 17 18 18
15 15 15 16 16 17 17 17 18 18 18 18 18 18 18 18 19 19 19 18 18 18 17 17 16 16 16 16 16 15 15 15 15 14 14 14 14 15 15 15 16 16 17
16 15 15 15 15 15 15 16 16 16 16 16 17 17 17 17 17 18 18 18 18 17 17 17 16 16 16 16 16 15 15 15 15 15 14 14 14 14 14 15 15 16 16
16 16 15 15 14 14 14 14 15 15 15 15 15 15 15 16 16 16 16 17 17 17 17 17 17 16 16 16 15 15 15 15 15 15 14 14 14 14 14 14 15 15 16
17 16 16 15 15 14 14 14 14 14 14 14 14 14 14 14 15 15 15 16 16 16 16 16 16 15 15 15 15 15 15 15 15 14 14 14 14 14 14 14 14 14 15
17 16 16 15 14 14 14 13 13 13 13 13 14 13 14 14 14 14 14 15 15 15 15 15 15 15 15 15 15 14 14 14 14 14 14 14 14 14 14 14 15 15 14
16 16 15 15 14 14 13 13 12 12 12 12 12 12 13 13 13 13 14 14 14 14 14 14 14 14 14 14 14 14 14 14 14 14 14 14 14 14 14 14 14 14 14
16 15 15 14 14 13 13 12 12 11 11 11 11 11 11 11 11 12 12 13 13 13 14 13 14 14 14 14 14 14 14 14 14 14 14 14 14 14 14 14 14 14 14
15 15 14 14 13 13 12 12 11 11 11 11 10 10 10 10 10 10 11 11 12 12 13 13 13 13 13 14 14 14 14 14 14 14 14 14 14 14 14 14 14 14 14
15 15 15 14 13 13 12 12 11 11 11 11 10 10 10 10 10 10 10 10 10 11 11 12 12 13 13 13 13 13 13 14 14 13 13 13 14 14 14 14 14 14 14
15 15 14 13 13 12 12 12 11 11 11 11 10 10 10 10 10 10 9 9 9 10 10 10 11 12 12 12 13 13 13 13 13 13 13 13 13 13 13 13 13 13 13
15 14 13 13 12 12 12 11 11 11 11 11 10 10 10 10 10 10 9 9 9 9 9 9 10 11 11 12 12 12 13 13 13 13 13 13 13 13 13 13 13 13 13
14 13 13 12 12 11 11 11 11 10 10 10 10 10 10 10 10 10 10 9 9 9 9 9 9 10 10 11 12 12 12 13 13 13 13 12 12 12 12 12 12 12 12
13 13 12 12 11 11 11 10 10 10 10 9 9 9 9 9 9 9 9 9 9 9 9 9 9 9 10 10 11 11 12 12 12 12 12 12 12 12 12 12 11 11 11
13 12 12 11 11 11 10 10 10 9 9 9 8 8 8 9 9 9 9 9 9 9 8 9 9 9 9 10 10 10 11 11 12 12 12 12 12 11 11 11 11 11 11
12 12 11 11 11 10 10 9 9 8 8 8 8 8 8 8 8 8 8 8 8 8 8 8 9 9 9 9 10 10 10 11 11 11 12 12 12 11 11 11 11 11 11
12 11 11 11 10 10 9 9 8 8 7 7 7 7 7 7 7 7 7 8 8 8 8 8 8 9 9 9 9 9 10 10 10 11 11 11 11 11 11 11 11 11 11
11 11 11 10 10 9 9 8 7 7 6 6 6 6 6 6 7 7 7 7 7 7 7 8 8 9 9 9 9 9 9 9 10 11 11 11 11 11 11 11 11 11 11
11 11 10 9 8 8 7 6 6 5 5 5 5 5 5 6 6 6 6 7 7 7 7 8 8 9 9 9 9 9 9 9 9 10 11 11 11 11 11 11 11 11 11
10 9 8 7 7 6 5 5 4 4 4 4 5 5 5 5 6 6 6 6 7 7 7 8 8 9 9 9 9 9 8 9 9 9 10 11 11 11 11 11 11 11 11
8 7 6 5 5 4 4 4 4 3 4 4 4 5 5 5 5 6 6 6 7 7 7 7 8 8 8 8 8 8 8 8 8 9 10 10 10 10 10 11 11 11 11
7 6 5 4 4 4 3 3 3 3 3 4 4 4 5 5 5 6 6 6 7 7 7 7 8 8 8 8 8 8 8 8 8 8 9 10 10 10 10 10 11 11 11
Wind_Speed
11 8 8 6 7 9 9 10 9 8 6 4 4 4 3 2 1 2 5 4 1 2 1 3 4 4 4 5 6 6 7 7 6 7 8 8 10 11 10 11 11 11 11
3 1 3 3 3 6 8 6 9 8 6 5 3 3 2 0 1 1 4 4 3 1 3 2 3 5 5 6 6 6 5 6 6 6 8 7 8 7 11 10 11 12 10
5 9 11 14 11 8 6 4 6 6 4 6 3 3 3 2 3 3 3 5 3 2 1 2 3 4 5 5 6 6 7 6 6 6 5 5 5 7 7 8 7 8 8
17 14 15 14 13 11 5 5 4 4 2 1 2 3 3 2 2 2 3 5 4 4 3 3 4 4 4 6 6 5 5 6 7 6 6 7 8 8 7 8 9 7 6
20 17 16 14 13 12 12 12 9 6 5 4 5 5 5 5 3 1 2 4 5 6 6 6 4 3 4 6 5 6 6 5 6 7 7 8 8 8 8 9 8 7 5
18 17 16 13 12 14 13 13 13 13 11 9 8 7 8 8 8 6 5 3 4 5 8 8 6 4 4 5 5 6 7 6 7 7 7 7 7 7 7 8 8 8 7
17 17 16 15 14 14 13 14 15 14 14 13 12 10 9 8 8 8 7 7 5 5 5 5 4 3 4 5 6 6 7 7 8 7 7 7 7 8 8 8 8 8 5
15 15 14 13 12 12 12 13 12 12 12 13 13 12 12 9 8 8 8 7 5 4 1 3 4 5 6 7 6 6 7 6 6 8 8 7 8 8 8 8 8 7 6
12 12 11 10 10 9 9 9 9 9 10 10 10 9 10 10 11 11 9 8 7 7 5 3 4 5 6 7 7 6 7 7 7 7 8 7 7 7 8 8 7 7 6
11 11 10 9 8 8 7 7 7 7 7 8 8 8 8 8 8 8 9 10 10 10 9 8 7 7 7 7 7 7 7 7 7 6 7 7 7 7 7 7 7 8 7
11 11 11 10 9 9 9 7 7 7 7 7 7 7 7 8 8 7 7 7 8 9 9 9 9 9 9 8 8 7 8 7 7 7 7 7 7 6 6 6 6 7 7
12 13 13 12 11 11 11 10 9 8 8 7 7 8 8 9 9 9 8 8 8 8 9 9 10 11 11 9 9 8 7 7 6 6 6 7 7 7 6 6 6 6 7
15 15 13 11 11 10 10 11 11 10 9 9 8 8 9 9 10 10 10 10 10 9 9 8 10 10 11 11 10 9 7 7 6 5 5 5 6 7 6 6 5 4 6
17 16 13 11 10 10 10 10 11 11 11 10 10 10 11 11 11 11 11 11 11 11 10 9 8 9 11 12 11 10 8 6 5 4 3 4 4 5 6 4 3 3 6
20 16 13 12 11 11 10 11 11 10 11 11 11 11 11 11 11 11 11 11 12 13 11 10 9 9 10 11 11 10 10 7 5 3 1 2 3 3 3 1 2 6 8
18 16 16 15 14 13 13 12 11 11 10 11 12 11 11 11 11 11 12 12 12 12 11 11 11 10 12 12 11 9 7 5 4 4 3 4 3 4 6 8 7 8 10
20 20 19 15 13 13 12 12 12 11 11 12 12 12 11 11 11 14 13 12 11 11 11 11 11 10 10 11 10 10 7 6 5 6 6 5 6 5 6 9 12 12 12
23 21 19 19 18 16 16 13 15 13 13 13 14 13 12 12 11 11 11 10 9 9 10 10 11 10 10 10 10 10 8 7 7 7 7 7 8 7 8 8 9 9 9
20 18 21 22 19 18 17 15 15 15 16 16 15 15 14 13 12 12 10 9 8 9 9 10 11 11 9 9 10 10 7 8 8 8 9 11 10 11 11 10 12 11 9
20 19 22 21 18 16 16 16 18 17 18 17 16 15 15 15 14 12 11 11 9 9 11 11 11 10 8 8 9 10 7 8 8 8 10 13 13 13 11 11 12 12 11
22 20 19 17 14 13 13 15 17 17 17 17 17 16 15 15 15 13 12 11 11 11 11 11 11 9 8 8 10 11 7 7 7 9 9 10 16 15 12 11 10 13 13
24 23 17 16 13 12 13 15 16 17 17 17 18 17 15 16 16 12 11 10 10 10 11 11 12 10 7 8 10 13 11 5 4 7 9 12 17 15 13 9 14 17 14
22 21 19 17 15 14 13 17 17 17 18 19 19 17 17 15 14 13 12 10 9 9 10 10 10 9 7 7 10 12 10 7 4 4 10 17 18 15 11 14 17 14 8
22 21 22 22 20 18 18 17 18 17 18 19 18 16 15 15 13 11 10 10 9 9 10 10 8 6 4 5 6 6 6 6 3 4 13 18 16 11 12 13 11 7 6
22 22 23 23 24 21 20 20 18 18 18 18 16 15 14 13 12 11 10 11 9 9 8 6 4 3 4 6 9 8 7 5 5 8 10 11 10 9 9 9 8 6 6
24 24 24 24 24 23 22 20 18 16 16 15 14 12 10 10 10 10 10 12 12 9 8 6 3 2 4 7 9 10 10 9 9 9 10 12 11 11 11 10 8 6 6
Wind_Direction
206 193 188 174 154 144 136 147 152 144 160 165 170 166 154 184 186 167 124 113 73 10 26 304 336 317 302 321 321 312 305 297 286 281 277 262 254 246 240 236 237 236 232
202 137 70 29 61 102 106 126 132 146 170 135 115 122 112 252 243 98 132 162 191 196 284 0 332 320 328 307 289 290 289 292 296 296 296 291 279 266 256 234 227 229 229
39 43 36 25 20 55 93 128 134 142 160 137 175 172 150 211 231 192 184 165 157 182 262 308 298 312 304 299 323 311 295 295 297 287 285 294 289 307 297 297 267 232 219
51 50 50 34 22 17 29 48 75 105 107 148 263 268 245 244 257 219 185 150 166 200 205 227 258 279 291 297 295 315 328 308 297 291 281 276 286 292 299 303 305 289 243
51 45 54 57 46 29 18 28 24 30 17 345 324 317 296 288 283 278 167 171 203 203 202 205 216 247 268 279 296 302 290 284 284 289 292 291 288 275 271 283 292 301 294
57 52 51 51 44 38 26 25 27 25 14 2 344 322 307 305 307 309 300 262 233 209 201 196 193 220 253 279 286 282 280 272 272 277 279 280 280 284 277 273 280 282 283
53 51 48 45 42 38 29 27 27 25 16 12 3 355 342 321 299 285 274 258 250 235 199 187 175 225 255 267 270 273 275 278 277 273 270 271 272 272 274 275 275 274 278
49 49 47 44 39 35 30 27 23 22 18 17 10 12 6 353 339 330 317 303 295 297 339 165 199 222 242 260 267 275 277 279 282 283 278 273 272 270 268 265 268 273 269
37 35 35 34 31 27 26 18 13 10 8 9 3 11 11 3 354 347 342 333 327 313 308 270 235 234 241 250 260 264 271 275 277 283 287 284 278 271 264 259 250 246 253
13 13 12 11 6 360 3 0 357 351 347 349 348 347 349 346 346 348 351 346 339 332 321 304 283 262 250 247 249 260 265 271 277 277 278 280 280 279 273 261 251 236 230
352 348 344 342 337 334 338 342 341 336 333 331 330 327 325 325 325 322 331 336 336 334 322 307 293 279 264 254 247 251 264 271 279 287 294 299 297 289 281 268 251 236 218
334 330 327 326 324 325 326 325 323 319 315 314 315 316 315 313 310 310 316 317 317 319 320 314 300 285 275 264 254 254 265 274 281 292 302 307 309 310 296 277 256 235 208
323 318 314 313 312 312 309 303 297 293 289 287 285 286 289 293 294 296 299 300 301 302 305 310 308 298 287 278 268 257 255 262 274 288 300 310 315 314 306 290 265 229 194
317 313 312 315 315 308 299 293 288 282 278 268 262 261 263 266 270 275 278 281 284 286 288 291 297 301 297 284 272 265 254 253 261 274 296 315 321 318 307 288 252 176 145
315 318 325 326 320 313 303 298 293 288 283 277 270 263 258 256 258 262 265 269 271 275 277 281 286 291 293 282 277 268 254 237 235 229 202 43 34 10 349 311 164 145 136
322 329 324 320 315 311 306 301 296 291 285 280 277 271 264 261 260 258 258 260 262 265 267 268 272 279 282 297 301 282 265 246 222 204 165 140 111 82 72 77 90 122 134
327 321 317 313 307 304 299 295 297 297 296 292 288 281 274 269 264 267 264 257 256 257 259 262 261 263 269 269 264 264 261 240 216 195 178 174 139 134 112 94 88 90 104
319 315 312 309 304 301 300 298 298 296 294 293 292 290 286 283 276 267 264 263 264 264 265 266 265 262 267 258 245 244 244 239 218 192 173 153 151 153 138 123 109 103 103
312 311 308 304 301 298 297 295 294 294 292 292 289 289 287 284 280 276 270 267 265 265 265 266 261 257 257 247 233 225 235 227 214 191 171 158 154 154 149 131 118 110 105
310 304 302 298 295 295 296 295 294 293 291 291 290 288 284 281 278 276 275 274 269 266 265 262 260 257 252 231 218 212 231 225 205 185 167 160 152 154 150 140 133 128 127
306 303 300 297 294 293 292 292 293 290 290 290 288 285 281 279 276 271 268 266 265 265 265 266 267 259 246 225 208 203 220 232 203 179 166 156 151 150 148 146 137 138 137
307 307 303 298 296 297 298 295 292 292 292 289 286 282 278 276 275 269 267 265 260 260 262 259 257 255 237 214 202 199 208 230 238 189 167 156 154 149 148 145 144 147 144
310 311 310 309 308 308 304 298 297 297 293 287 283 280 278 273 269 266 265 263 254 252 255 254 248 243 228 197 191 194 196 208 238 232 162 151 150 144 144 150 154 158 158
319 320 319 315 312 311 306 299 297 293 287 282 280 278 275 270 264 257 254 253 248 246 248 252 255 241 208 188 178 177 171 158 173 174 149 142 146 144 138 150 162 176 172
325 325 320 315 311 308 302 297 293 289 284 281 278 276 271 265 261 255 248 245 242 239 242 246 244 235 216 191 178 173 174 156 145 150 152 148 149 148 149 161 176 184 158
326 322 317 312 308 305 300 295 291 285 282 281 278 272 266 262 255 251 251 234 228 219 204 198 188 157 138 150 169 167 155 139 152 170 163 157 157 157 160 168 172 167 148
Height
1465 1465 1468 1468 1467 1468 1470 1475 1482 1485 1489 1493 1495 1497 1499 1501 1503 1504 1504 1505 1505 1506 1505 1505 1504 1504 1504 1504 1503 1502 1502 1501 1501 1500 1498 1496 1496 1495 1494 1494 1495 1496 1496
1463 1463 1467 1466 1461 1463 1465 1474 1480 1485 1488 1491 1493 1495 1497 1498 1501 1502 1502 1502 1502 1502 1503 1502 1501 1501 1500 1499 1499 1499 1498 1497 1497 1496 1495 1492 1492 1490 1490 1489 1488 1489 1490
1466 1465 1464 1464 1463 1461 1467 1478 1484 1486 1489 1490 1492 1494 1495 1496 1498 1499 1499 1499 1499 1499 1499 1498 1497 1497 1496 1496 1496 1495 1494 1493 1493 1493 1493 1490 1487 1486 1484 1484 1484 1484 1484
1472 1472 1468 1470 1471 1473 1476 1484 1486 1488 1490 1491 1492 1493 1494 1495 1496 1497 1497 1496 1496 1496 1496 1495 1494 1493 1493 1492 1492 1492 1490 1489 1488 1488 1488 1488 1487 1485 1481 1479 1479 1479 1480
1478 1480 1475 1476 1478 1479 1481 1486 1486 1488 1488 1490 1491 1491 1493 1493 1494 1494 1494 1494 1493 1493 1492 1491 1491 1490 1490 1489 1488 1487 1486 1485 1484 1484 1483 1483 1482 1481 1481 1478 1476 1476 1477
1484 1485 1484 1482 1482 1481 1483 1484 1485 1484 1485 1486 1488 1489 1490 1490 1491 1491 1491 1491 1491 1490 1489 1488 1487 1487 1486 1486 1485 1484 1482 1482 1481 1480 1479 1478 1477 1476 1476 1475 1474 1473 1474
1487 1487 1487 1486 1485 1484 1484 1484 1483 1483 1484 1484 1484 1485 1485 1486 1486 1487 1487 1487 1487 1487 1486 1485 1484 1483 1483 1482 1481 1480 1479 1478 1477 1475 1474 1473 1472 1472 1471 1471 1469 1470 1470
1490 1490 1490 1489 1489 1488 1487 1486 1485 1484 1483 1483 1482 1482 1481 1481 1481 1482 1482 1483 1483 1483 1483 1481 1480 1479 1479 1478 1477 1476 1475 1474 1473 1471 1470 1468 1467 1466 1466 1465 1465 1464 1465
1494 1493 1493 1492 1491 1490 1489 1487 1485 1484 1482 1482 1481 1480 1479 1478 1477 1476 1476 1476 1477 1477 1477 1477 1476 1475 1474 1474 1473 1472 1471 1470 1468 1467 1465 1463 1462 1461 1460 1459 1460 1460 1459
1497 1495 1494 1493 1492 1491 1489 1487 1485 1482 1481 1480 1478 1477 1476 1475 1474 1473 1472 1471 1470 1470 1470 1471 1471 1470 1470 1469 1468 1467 1466 1465 1464 1462 1460 1458 1456 1455 1453 1452 1452 1453 1454
1499 1497 1495 1493 1491 1490 1488 1486 1484 1481 1479 1477 1475 1473 1471 1470 1469 1468 1467 1466 1465 1464 1464 1464 1464 1465 1465 1464 1463 1462 1462 1460 1459 1457 1455 1453 1451 1449 1447 1446 1446 1446 1448
1499 1496 1494 1491 1489 1487 1485 1483 1481 1478 1476 1473 1471 1469 1467 1465 1463 1462 1461 1460 1459 1459 1458 1457 1457 1458 1458 1459 1458 1457 1457 1455 1454 1452 1450 1448 1446 1444 1442 1441 1440 1440 1442
1497 1494 1491 1488 1486 1483 1481 1479 1477 1474 1471 1468 1466 1463 1461 1459 1457 1455 1453 1452 1451 1451 1450 1451 1450 1450 1451 1452 1452 1452 1451 1450 1449 1448 1446 1444 1442 1439 1437 1436 1435 1435 1437
1493 1490 1486 1484 1482 1480 1477 1474 1472 1469 1466 1463 1460 1457 1455 1452 1450 1448 1446 1444 1443 1442 1442 1442 1442 1443 1443 1444 1445 1445 1445 1445 1444 1443 1442 1440 1438 1436 1434 1432 1432 1432 1434
1488 1485 1482 1480 1478 1475 1472 1469 1466 1463 1460 1457 1454 1451 1449 1446 1444 1442 1440 1438 1436 1434 1434 1433 1433 1434 1435 1436 1437 1438 1439 1439 1439 1439 1438 1437 1435 1433 1431 1429 1429 1430 1432
1483 1481 1479 1476 1473 1469 1466 1463 1459 1456 1454 1450 1447 1445 1442 1440 1437 1435 1434 1432 1430 1428 1427 1426 1426 1426 1427 1428 1429 1431 1432 1433 1434 1434 1434 1433 1433 1431 1429 1428 1428 1430 1432
1480 1477 1474 1470 1467 1463 1459 1455 1452 1449 1446 1442 1440 1437 1435 1432 1430 1429 1427 1425 1424 1423 1421 1420 1419 1419 1420 1420 1421 1422 1424 1426 1428 1430 1431 1431 1430 1430 1429 1429 1430 1432 1434
1475 1471 1467 1463 1459 1455 1451 1447 1444 1441 1437 1434 1431 1429 1427 1424 1423 1421 1420 1419 1418 1417 1416 1415 1414 1414 1413 1414 1414 1415 1417 1419 1422 1425 1426 1427 1428 1429 1429 1430 1431 1433 1436
1470 1465 1460 1455 1451 1447 1443 1439 1435 1432 1429 1426 1423 1420 1418 1416 1414 1412 1412 1411 1410 1410 1409 1408 1408 1408 1407 1408 1407 1408 1410 1413 1416 1419 1421 1424 1426 1428 1429 1431 1432 1435 1438
1464 1458 1452 1447 1442 1437 1434 1429 1425 1422 1419 1416 1413 1411 1409 1406 1405 1403 1403 1403 1403 1402 1402 1401 1402 1402 1402 1402 1402 1402 1404 1406 1410 1414 1417 1420 1423 1426 1429 1431 1433 1435 1439
1455 1449 1443 1437 1432 1428 1423 1418 1415 1412 1409 1406 1403 1400 1398 1396 1395 1394 1393 1394 1394 1394 1394 1394 1394 1395 1395 1396 1396 1397 1398 1401 1404 1408 1412 1416 1420 1424 1428 1432 1434 1437 1441
1445 1440 1433 1427 1422 1418 1413 1407 1403 1400 1397 1394 1391 1389 1387 1385 1385 1384 1384 1384 1385 1386 1386 1386 1386 1388 1389 1390 1390 1391 1393 1395 1399 1403 1407 1412 1417 1422 1427 1432 1435 1438 1442
1436 1430 1424 1417 1412 1407 1402 1396 1391 1388 1384 1381 1379 1377 1375 1375 1374 1374 1375 1375 1377 1378 1378 1380 1380 1381 1383 1383 1384 1386 1387 1390 1393 1397 1403 1409 1414 1420 1426 1431 1435 1439 1443
1429 1422 1414 1407 1400 1395 1389 1383 1378 1374 1371 1368 1366 1365 1365 1364 1364 1365 1366 1367 1368 1370 1372 1373 1375 1376 1377 1378 1379 1380 1383 1386 1389 1393 1400 1406 1412 1418 1424 1430 1435 1439 1443
1422 1414 1406 1397 1388 1381 1375 1370 1365 1361 1358 1356 1355 1355 1355 1355 1355 1356 1357 1359 1361 1363 1366 1368 1370 1371 1373 1374 1375 1376 1379 1382 1386 1391 1397 1404 1410 1416 1422 1428 1433 1438 1442
1414 1405 1396 1386 1377 1369 1362 1357 1353 1350 1348 1346 1345 1345 1345 1346 1347 1348 1350 1351 1354 1357 1360 1363 1365 1367 1369 1370 1371 1374 1377 1380 1385 1391 1397 1402 1408 1414 1420 1426 1431 1436 1441